This demonstration page uses our WeatherBlox Daily Observations layout. Learn more.

Left ArrowRight Arrow

41.12389, -100.76542

Hourly Observations for March 4, 2019

Temp ( °F °C ) Dew Point ( °F °C ) Humidity (%) Winds ( mph kmh ) Pressure ( in mb ) Visibility ( mi km ) Precip ( " mm )
12:53 am 00:53 Clear -15 -26.1 -19 -28.3 82 82 NNW 9 15 30.60 1036 10 16 0.00 0.00
1:53 am 01:53 Clear -17 -27.2 -20 -28.9 85 85 NNW 8 13 30.60 1036 10 16 0.00 0.00
2:53 am 02:53 Clear -19 -28.3 -23 -30.6 81 81 NW 7 11 30.60 1036 10 16 0.00 0.00
3:53 am 03:53 Clear -18 -27.8 -22 -30 81 81 NNW 8 13 30.59 1036 10 16 0.00 0.00
4:53 am 04:53 Clear -21 -29.4 -25 -31.7 80 80 NNW 7 11 30.59 1036 10 16 0.00 0.00
5:53 am 05:53 Clear -20 -28.9 -25 -31.7 77 77 NNW 8 13 30.60 1036 10 16 0.00 0.00
6:53 am 06:53 Clear -23 -30.6 -28 -33.3 77 77 WNW 6 9 30.61 1037 10 16 0.00 0.00
7:53 am 07:53 Sunny -14 -25.6 -20 -28.9 74 74 WNW 8 13 30.58 1036 10 16 0.00 0.00
8:53 am 08:53 Sunny -7 -21.7 -15 -26.1 68 68 WNW 12 19 30.59 1036 10 16 0.00 0.00
9:53 am 09:53 Sunny -1 -18.3 -12 -24.4 59 59 NW 8 13 30.59 1036 10 16 0.00 0.00
10:53 am 10:53 Sunny 2 -16.7 -10 -23.3 57 57 NW 13 20 30.56 1035 10 16 0.00 0.00
11:53 am 11:53 Sunny 6 -14.4 -7 -21.7 54 54 WNW 14 22 30.55 1034 10 16 0.00 0.00
12:53 pm 12:53 Sunny 9 -12.8 -4 -20 55 55 NW 14 22 30.52 1034 10 16 0.00 0.00
1:53 pm 13:53 Sunny 11 -11.7 -3 -19.4 53 53 NW 14 22 30.48 1032 10 16 0.00 0.00
2:53 pm 14:53 Sunny 13 -10.6 -1 -18.3 54 54 NW 16 26 30.46 1032 10 16 0.00 0.00
3:53 pm 15:53 Sunny 14 -10 0 -17.8 53 53 WNW 10 17 30.45 1031 10 16 0.00 0.00
4:53 pm 16:53 Sunny 15 -9.4 1 -17.2 53 53 NW 15 24 30.44 1031 10 16 0.00 0.00
5:53 pm 17:53 Sunny 14 -10 1 -17.2 56 56 W 9 15 30.42 1030 10 16 0.00 0.00
6:53 pm 18:53 Clear 9 -12.8 -1 -18.3 64 64 WNW 10 17 30.45 1031 10 16 0.00 0.00
7:53 pm 19:53 Clear 3 -16.1 -4 -20 72 72 WNW 5 7 30.45 1031 10 16 0.00 0.00
8:53 pm 20:53 Clear 0 -17.8 -5 -20.6 79 79 NW 6 9 30.44 1031 10 16 0.00 0.00
9:53 pm 21:53 Clear -8 -22.2 -10 -23.3 91 91 NNW 6 9 30.46 1032 10 16 0.00 0.00
10:53 pm 22:53 Clear -3 -19.4 -7 -21.7 82 82 NNW 9 15 30.45 1031 10 16 0.00 0.00
11:53 pm 23:53 Clear -5 -20.6 -9 -22.8 83 83 NNW 7 11 30.44 1031 10 16 0.00 0.00

Powered by AerisWeather